Location: Newark
(36.0797°N, 3.9744°E)
Time: 05:01:33
(UTC+00:00)

Vanguard 2 - Pass Details

Date: 09 December 2019
Orbit: 553 x 2938 km, 32.9° (Epoch: 19 January)

Event Time Altitude Azimuth Distance (km) Brightness Sun altitude
Exits shadow 01:34:56 45° 102° (ESE) 3,632 10.8 -61.1°
Drops below altitude 10° 01:45:49 10° 82° (E) 5,550 12.2 -59.0°
Sets 01:49:51 0° 79° (E) 6,390 12.7 -58.2°
